User: anonymous   Login
Location: Unspecified
(0.0000°N, 0.0000°E)
Time: 17:52:32
(UTC+00:00)
Language:

COSMOS 2391 - Orbit

View from above orbital plane
View from above orbital plane
View from above satellite
View from above satellite

Ground track
Ground track

The orbit data is extracted from the following two-line orbital elements,

1 27465U 02036B   19017.19430325  .00000007  00000-0 -23908-4 0  9994
2 27465  82.4812 235.7166 0026643  59.7430 300.6298 12.44885365751131
Epoch (UTC): 17 January 2019 04:39:47
Eccentricity: 0.0026643
inclination: 82.4812°
perigee height: 1465 km
apogee height: 1507 km
right ascension of ascending node: 235.7166°
argument of perigee: 59.7430°
revolutions per day: 12.44885365
mean anomaly at epoch: 300.6298°
orbit number at epoch: 75113

The dashed part of the orbit path shows where the satellite is in the earth's shadow,  

DLR